Погода в Светлом

Россия / Алтайский край     52°54′30″N   81°03′26″E
темп.,
°C
ветер,
м/с
пор.,
м/с
влажн.,
%
обл.,
%
осадки,
мм/ч
давл.,
гПа
погр.,
м
2 августа, пн
пн201:00+18всв2255100 0.0 100720
04:00+17в0156100 0.0 100611
07:00+18всв1155100 0.0 100619
10:00+26ссз343878 0.0 1006548
13:00+30зсз45315 0.0 10051924
16:00+32сз56281 0.0 10052685
19:00+31з56301 0.0 10042135
22:00+18св589495 3.9 1006159
3 августа, вт
вт301:00+18юз229499 4.6 100633
04:00+17зсз3492100 0.0 100760
07:00+17зсз369173 0.0 1007116
10:00+22сз35682 0.3 1008393
13:00+23юз236311 1.1 1008313
16:00+28зсз5732100 0.1 10072888
19:00+24сз454266 0.1 1008854
22:00+20ссз3350100 0.0 100937
4 августа, ср
ср401:00+17ссз1159100 0.0 100811
04:00+18зюз225696 0.0 100819
07:00+18юз1159100 0.0 100824
10:00+23зюз2344100 0.0 1008527
13:00+27з3432100 0.0 10072883
16:00+23юз564892 0.2 1007580
19:00+20ссз4672100 1.4 1008355
22:00+16зюз228638 0.5 100814
5 августа, чт
чт501:00+15сз228818 0.5 100821
04:00+14зсз349183 0.0 100855
07:00+13з24935 0.0 1008103
10:00+19зсз347059 0.1 1008670
13:00+22сз455428 0.7 10071460
16:00+21сз5761100 0.8 1007718
19:00+23ссз5650100 0.9 10071474
22:00+17сз227611 0.1 100820
6 августа, пт
пт601:00+15зсз228825 0.1 100827
04:00+14зсз229362 0.0 100733
07:00+14зсз239184 0.0 100881
10:00+20зсз3365100 0.0 1008551
13:00+25сз444799 0.0 10081600
16:00+27ссз543664 0.0 10072483
19:00+27с443527 0.0 10072193
22:00+17зюз228684 2.8 100933